EHI
0 0 0 0 0 0 0 0 0 0 0 0 0 0 0 0 0 0 0 0 0 0 0 0 0 0 0 0 0 0 0 0 0 0 0 0 0 0 0 0 0 0 0
0 0 0 0 0 0 0 0 0 0 0 0 0 0 0 0 0 0 0 0 0 0 0 0 0 0 0 0 0 0 0 0 0 0 0 0 0 0 0 0 0 0 0
0 0 0 0 0 0 0 0 0 0 0 0 0 0 0 0 0 0 0 0 0 0 0 0 0 0 0 0 0 0 0 0 0 0 0 0 0 0 0 0 0 0 0
0 0 0 0 0 0 0 0 0 0 0 0 0 0 0 0 0 0 0 0 0 0 0 0 0 0 0 0 0 0 0 0 0 0 0 0 0 0 0 0 0 0 0
0 0 0 0 0 0 0 0 0 0 0 0 0 0 0 0 0 0 0 0 0 0 0 0 0 0 0 0 0 0 0 0 0 0 0 0 0 0 0 0 0 0 0
0 0 0 0 0 0 0 0 0 0 0 0 0 0 0 0 0 0 0 0 0 0 0 0 0 0 0 0 0 0 0 0 0 0 0 0 0 0 0 0 0 0 0
0 0 0 0 0 0 0 0 0 0 0 0 0 0 0 0 0 0 0 0 0 0 0 0 0 0 0 0 0 0 0 0 0 0 0 0 0 0 0 0 0 0 0
0 0 0 0 0 0 0 0 0 0 0 0 0 0 0 0 0 0 0 0 0 0 0 0 0 0 0 0 0 0 0 0 0 0 0 0 0 0 0 0 0 0 0
0 0 0 0 0 0 0 0 0 0 0 0 0 0 0 0 0 0 0 0 0 0 0 0 0 0 0 0 0 0 0 0 0 0 0 0 0 0 0 0 0 0 0
0 0 0 0 0 0 0 0 0 0 0 0 0 0 0 0 0 0 0 0 0 0 0 0 0 0 0 0 0 0 0 0 0 0 0 0 0 0 0 0 0 0 0
0 0 0 0 0 0 0 0 0 0 0 0 0 0 0 0 0 0 0 0 0 0 0 0 0 0 0 0 0 0 0 0 0 0 0 0 0 0 0 0 0 0 0
0 0 0 0 0 0 0 0 0 0 0 0 0 0 0 0 0 0 0 0 0 0 0 0 0 0 0 0 0 0 0 0 0 0 0 0 0 0 0 0 0 0 0
0 0 0 0 0 0 0 0 0 0 0 0 0 0 0 0 0 0 0 0 0 0 0 0 0 0 0 0 0 0 0 0 0 0 0 0 0 0 0 0 0 0 0
0 0 0 0 0 0 0 0 0 0 0 0 0 0 0 0 0 0 0 0 0 0 0 0 0 0 0 0 0 0 0 0 0 0 0 0 0 0 0 0 0 0 0
0 0 0 0 0 0 0 0 0 0 0 0 0 0 0 0 0 0 0 0 0 0 0 0 0 0 0 0 0 0 0 0 0 0 0 0 0 0 0 0 0 0 0
0 0 0 0 0 0 0 0 0 0 0 0 0 0 0 0 0 0 0 0 0 0 0 0 0 0 0 0 0 0 0 0 0 0 0 0 0 0 0 0 0 0 0
0 0 0 0 0 0 0 0 0 0 0 0 0 0 0 0 0 0 0 0 0 0 0 0 0 0 0 0 0 0 0 0 0 0 0 0 0 0 0 0 0 0 0
0 0 0 0 0 0 0 0 0 0 0 0 0 0 0 0 0 0 0 0 0 0 0 0 0 0 0 0 0 0 0 0 0 0 0 0 0 0 0 0 0 0 0
0 0 0 0 0 0 0 0 0 0 0 0 0 0 0 0 0 0 0 0 0 0 0 0 0 0 0 0 0 0 0 0 0 0 0 0 0 0 0 0 0 0 0
0 0 0 0 0 0 0 0 0 0 0 0 0 0 0 0 0 0 0 0 0 0 0 0 0 0 0 0 0 0 0 0 0 0 0 0 0 0 0 0 0 0 0
0 0 0 0 0 0 0 0 0 0 0 0 0 0 0 0 0 0 0 0 0 0 0 0 0 0 0 0 0 0 0 0 0 0 0 0 0 0 0 0 0 0 0
0 0 0 0 0 0 0 0 0 0 0 0 0 0 0 0 0 0 0 0 0 0 0 0 0 0 0 0 0 0 0 0 0 0 0 0 0 0 0 0 0 0 0
0 0 0 0 0 0 0 0 0 0 0 0 0 0 0 0 0 0 0 0 0 0 0 0 0 0 0 0 0 0 0 0 0 0 0 0 0 0 0 0 0 0 0
0 0 0 0 0 0 0 0 0 0 0 0 0 0 0 0 0 0 0 0 0 0 0 0 0 0 0 0 0 0 0 0 0 0 0 0 0 0 0 0 0 0 0
0 0 0 0 0 0 0 0 0 0 0 0 0 0 0 0 0 0 0 0 0 0 0 0 0 0 0 0 0 0 0 0 0 0 0 0 0 0 0 0 0 0 0
0 0 0 0 0 0 0 0 0 0 0 0 0 0 0 0 0 0 0 0 0 0 0 0 0 0 0 0 0 0 0 0 0 0 0 0 0 0 0 0 0 0 0
Wind_Speed
3 3 3 3 3 2 1 2 2 2 3 3 4 4 4 5 5 5 5 5 6 5 5 6 6 5 4 4 4 3 3 3 4 2 2 2 3 3 3 2 3 3 4
3 3 3 3 3 3 2 2 2 2 2 3 4 4 4 4 5 6 6 6 6 7 7 6 7 6 6 5 5 5 4 4 4 4 2 2 3 4 3 3 3 3 3
4 4 3 3 3 3 4 3 2 2 2 3 3 4 5 5 5 6 6 6 7 7 7 8 7 7 7 6 6 6 4 4 3 4 3 2 2 3 3 3 3 3 4
4 4 4 4 3 4 3 4 3 3 3 3 3 4 4 5 5 5 6 6 6 6 6 7 7 8 8 7 7 7 5 5 4 4 4 3 3 3 2 3 3 3 3
5 5 5 4 4 4 4 4 3 3 4 3 3 3 4 4 4 4 5 5 6 6 6 7 7 8 10 8 7 7 7 6 5 5 4 4 4 4 4 3 3 3 3
5 5 5 5 5 5 5 4 4 4 3 3 3 3 3 4 6 7 5 4 5 6 6 6 7 8 10 11 11 11 10 9 8 7 6 6 7 5 3 3 3 3 4
4 5 5 5 5 5 5 4 4 4 4 4 3 3 3 4 6 7 7 4 5 5 6 5 5 6 8 6 9 11 11 13 11 8 7 8 7 6 6 5 5 5 4
4 5 5 5 5 5 5 5 4 3 3 4 4 3 3 4 7 7 7 5 4 5 5 6 6 6 7 7 7 7 7 8 10 8 7 7 6 6 7 6 5 4 3
5 5 5 5 6 5 5 5 4 4 4 4 3 3 3 4 7 7 6 3 3 4 4 5 5 6 10 10 7 7 6 6 9 11 10 8 9 8 6 3 3 3 4
6 6 5 5 5 6 6 6 5 4 4 4 4 3 4 4 6 7 6 2 3 3 3 4 6 7 9 11 7 7 7 6 5 6 7 7 6 7 9 6 5 5 3
6 6 6 5 5 5 5 5 5 5 4 4 4 4 4 5 6 7 6 3 3 3 3 3 3 7 9 10 8 6 8 6 5 5 4 4 4 4 5 4 4 4 4
6 6 6 6 5 5 4 4 4 4 4 4 3 4 3 3 5 6 7 6 5 3 3 2 3 6 8 9 7 7 8 6 3 4 4 4 4 3 3 3 3 3 3
6 7 6 6 5 5 4 4 4 3 3 3 3 3 3 2 3 7 7 7 7 4 3 5 5 6 6 5 7 8 6 3 3 3 4 3 3 3 2 2 1 1 1
6 7 7 6 5 4 3 3 3 3 3 3 3 3 4 3 3 3 3 4 5 5 3 4 5 5 4 4 4 4 3 3 4 3 3 2 2 2 2 2 2 2 1
6 6 6 6 5 4 4 3 4 3 4 4 3 3 3 4 5 7 5 3 3 3 3 1 1 1 2 2 2 2 2 3 3 3 3 3 3 2 2 2 2 2 2
6 6 5 5 5 4 4 4 6 7 9 9 9 7 6 8 10 10 10 10 10 8 4 2 2 3 3 3 2 2 2 3 3 3 3 3 3 3 3 2 2 3 3
6 6 5 5 5 4 4 4 5 6 8 9 9 10 9 10 10 10 10 10 9 7 3 2 3 3 3 3 3 3 3 3 3 3 3 3 3 3 3 3 3 3 3
6 7 7 5 5 5 4 4 4 4 4 4 6 9 10 10 10 9 9 7 4 3 2 2 2 3 3 3 3 3 2 3 3 3 3 3 3 3 3 3 3 4 3
6 5 5 4 5 5 4 4 4 4 4 4 4 5 8 8 8 8 7 3 2 2 2 2 2 2 2 2 2 3 3 3 3 3 3 3 3 3 3 4 4 6 4
5 9 8 5 4 4 4 4 4 4 4 4 4 4 4 4 3 3 3 2 2 2 2 2 2 2 3 2 2 3 3 3 3 3 3 3 3 4 4 5 4 4 4
5 6 10 6 4 4 4 4 4 4 4 4 4 6 8 4 3 3 3 3 2 2 2 2 2 2 2 2 3 3 3 3 3 3 3 3 4 4 4 4 4 4 4
4 4 5 5 5 5 5 4 4 4 4 5 5 5 9 5 3 3 3 3 2 2 2 2 2 2 2 2 2 3 3 3 4 3 4 4 4 4 4 4 4 4 4
4 5 5 5 5 7 7 4 4 4 5 5 5 4 4 4 3 3 3 3 3 2 2 2 2 2 2 2 2 2 3 4 4 4 4 4 4 4 4 5 5 5 5
4 4 5 5 5 5 5 5 5 5 5 5 5 4 4 4 4 4 3 3 3 2 2 2 2 3 3 3 2 2 3 3 3 4 6 5 5 4 4 5 5 6 5
4 4 5 5 5 5 5 5 5 5 5 5 5 5 4 4 4 4 3 3 3 3 3 3 2 3 3 4 4 4 6 8 7 5 4 4 5 5 5 5 5 5 5
4 4 4 4 4 5 5 5 5 5 5 5 5 5 4 4 4 4 3 3 3 3 3 3 3 4 4 4 5 7 9 9 9 9 5 4 4 5 5 5 6 5 5
Wind_Direction
343 336 336 333 330 308 278 265 259 255 240 219 207 205 204 201 197 194 201 204 206 211 212 208 212 205 201 205 199 198 204 197 223 246 230 219 221 235 248 244 236 233 240
337 334 336 339 336 327 300 289 277 256 247 238 212 206 210 212 205 202 205 207 208 212 213 210 215 210 208 204 197 201 206 207 206 226 230 216 225 224 236 244 260 248 236
337 336 335 336 334 327 320 306 295 281 261 254 228 214 213 218 218 213 209 209 212 216 214 211 211 207 211 205 200 201 205 211 201 209 227 223 226 221 233 251 258 258 251
342 338 333 332 328 320 320 319 306 293 274 257 245 232 223 224 227 224 216 211 213 219 221 219 215 211 211 207 205 201 198 199 200 205 218 222 221 217 211 229 253 252 249
342 340 335 333 333 330 325 320 310 294 285 273 256 246 234 228 225 225 222 216 214 218 221 223 224 224 223 220 214 200 194 198 202 207 216 222 219 207 215 219 240 256 255
338 334 336 338 335 330 322 318 312 303 289 282 269 254 245 248 245 243 243 223 218 218 223 227 228 227 230 231 230 224 211 202 202 206 213 216 219 215 208 216 224 240 253
331 330 334 332 328 322 316 317 312 305 301 286 277 264 259 260 261 251 249 238 224 224 222 223 229 225 226 218 224 230 228 227 223 215 214 217 212 206 201 211 219 234 248
330 328 328 327 321 319 315 309 305 300 295 287 272 268 270 270 275 269 262 245 233 229 227 224 219 216 215 213 211 216 221 225 228 224 218 217 217 209 206 210 215 234 261
326 324 323 320 316 314 311 304 296 291 285 281 279 266 265 274 279 278 275 243 242 239 233 229 224 213 221 221 211 210 222 231 237 236 238 238 238 234 225 195 193 209 246
319 317 315 312 306 303 301 299 295 287 283 285 285 276 263 263 274 280 279 246 246 244 240 236 236 226 225 223 212 204 213 221 218 225 229 231 229 225 223 209 194 204 219
317 314 311 308 302 296 295 296 295 292 290 287 284 280 273 274 276 279 281 264 247 243 245 238 237 237 232 231 229 215 222 219 207 211 213 212 214 211 212 212 208 208 211
317 313 310 307 303 303 299 298 298 297 293 287 284 282 273 276 285 287 286 281 270 250 252 252 242 244 243 239 237 228 227 220 196 200 205 207 209 211 210 210 216 224 224
319 314 311 309 304 302 296 294 293 289 287 291 290 291 292 290 285 286 290 295 290 278 260 263 261 252 253 239 237 233 225 199 186 196 203 209 210 201 189 188 189 196 235
316 314 313 311 305 299 293 289 288 286 288 290 291 291 292 291 289 287 284 288 287 284 271 263 264 263 268 253 234 230 213 196 192 193 196 192 183 184 188 183 192 189 216
315 314 313 313 306 299 295 283 284 271 275 280 275 281 285 281 279 282 284 279 269 261 262 236 211 228 228 226 217 204 193 191 195 182 180 183 191 197 201 189 191 195 216
315 317 316 317 312 306 302 304 297 292 296 295 294 291 287 288 293 290 286 286 286 272 267 223 217 218 219 216 215 205 200 198 189 185 184 186 192 198 204 202 201 205 217
308 311 311 313 312 307 306 306 309 312 304 302 302 299 296 295 295 296 293 285 282 274 262 232 221 220 221 215 213 207 203 194 183 185 188 187 189 195 199 205 207 213 226
305 303 307 307 307 302 300 301 300 303 309 308 306 305 306 303 301 302 300 297 282 270 245 231 230 222 219 214 211 207 195 186 184 187 186 186 190 194 203 210 212 215 225
304 302 303 304 302 301 300 299 298 299 299 301 303 306 309 308 307 306 306 293 277 270 254 235 234 232 225 222 212 202 195 195 191 188 191 191 193 195 206 213 218 231 237
302 304 309 308 305 306 303 300 299 299 300 300 301 304 310 308 299 301 298 287 277 274 267 260 250 241 228 219 216 206 201 201 197 198 198 198 200 203 209 216 220 225 231
303 304 307 309 307 304 302 299 296 296 296 297 297 301 307 299 292 293 294 291 281 274 268 262 257 262 252 222 211 208 206 208 206 204 203 205 205 210 215 220 224 227 230
299 300 303 303 304 302 300 297 299 299 299 299 298 301 307 309 304 297 294 293 293 289 278 266 260 251 248 238 218 208 209 213 211 207 209 210 210 214 217 220 222 225 227
297 297 300 300 301 302 305 303 300 296 293 293 295 297 297 298 297 295 293 296 296 294 291 280 272 272 264 257 239 219 219 223 218 208 210 215 215 216 218 220 221 224 230
302 303 303 303 301 298 298 297 294 294 293 293 293 293 292 291 291 291 291 291 287 285 282 275 270 267 266 263 260 250 240 239 230 220 213 216 221 222 221 221 222 225 227
296 296 296 297 300 300 300 300 298 295 293 293 293 294 294 292 290 289 290 288 285 280 279 275 270 264 261 260 259 255 254 257 255 242 222 218 220 222 221 221 224 227 229
295 296 295 296 295 296 297 298 298 300 298 297 295 293 292 289 285 283 284 284 283 281 280 278 275 269 266 265 262 260 262 262 261 257 242 220 216 222 220 224 223 227 226